When you browse on this site, cookies collect data to enhance your experience and personalize the content and advertising you see.
Visit our Privacy Policy to learn more. By continuing to use the site, you agree to this use of cookies and data.
  • în România
  • Lista ţărilor
  • Pe 7 zile
  • Temperatura apei
  • Meteo pe hartă
  • Widget-uri
  • user-avatar
    Intrare

    Meteo pe oră la Nasirijja

    Astăzi, 22 August, Joi

    Timp Temperatura Precipitaţii Vânt Presiune Umiditate
    00:00 +40°C° 0 mm 7 m/s 750 mmHg 15%
    01:00 +39°C° 0 mm 7 m/s 750 mmHg 16%
    02:00 +39°C° 0 mm 7 m/s 750 mmHg 18%
    03:00 +38°C° 0 mm 7 m/s 750 mmHg 20%
    04:00 +36°C° 0 mm 6 m/s 750 mmHg 20%
    05:00 +36°C° 0 mm 6 m/s 750 mmHg 20%
    06:00 +35°C° 0 mm 5 m/s 750 mmHg 20%
    07:00 +39°C° 0 mm 6 m/s 750 mmHg 17%
    08:00 +41°C° 0 mm 7 m/s 751 mmHg 14%
    09:00 +45°C° 0 mm 7 m/s 751 mmHg 11%
    10:00 +47°C° 0 mm 7 m/s 750 mmHg 9%
    11:00 +50°C° 0 mm 8 m/s 750 mmHg 7%
    12:00 +51°C° 0 mm 8 m/s 750 mmHg 5%
    13:00 +52°C° 0 mm 8 m/s 750 mmHg 5%
    14:00 +52°C° 0 mm 8 m/s 749 mmHg 5%
    15:00 +54°C° 0 mm 8 m/s 749 mmHg 5%
    16:00 +51°C° 0 mm 8 m/s 749 mmHg 6%
    17:00 +50°C° 0 mm 8 m/s 748 mmHg 7%
    18:00 +49°C° 0 mm 8 m/s 748 mmHg 8%
    19:00 +46°C° 0 mm 8 m/s 749 mmHg 9%
    20:00 +43°C° 0 mm 7 m/s 749 mmHg 11%
    21:00 +40°C° 0 mm 6 m/s 749 mmHg 12%
    22:00 +39°C° 0 mm 6 m/s 749 mmHg 13%
    23:00 +38°C° 0 mm 6 m/s 750 mmHg 14%

    Mâine, 23 August, Vineri

    Timp Temperatura Precipitaţii Vânt Presiune Umiditate
    00:00 +38°C° 0 mm 6 m/s 750 mmHg 15%
    01:00 +36°C° 0 mm 6 m/s 750 mmHg 16%
    02:00 +36°C° 0 mm 6 m/s 749 mmHg 16%
    03:00 +35°C° 0 mm 6 m/s 749 mmHg 16%
    04:00 +34°C° 0 mm 5 m/s 749 mmHg 18%
    05:00 +34°C° 0 mm 5 m/s 750 mmHg 19%
    06:00 +33°C° 0 mm 4 m/s 750 mmHg 20%
    07:00 +36°C° 0 mm 5 m/s 750 mmHg 18%
    08:00 +40°C° 0 mm 5 m/s 750 mmHg 15%
    09:00 +44°C° 0 mm 6 m/s 750 mmHg 12%
    10:00 +46°C° 0 mm 6 m/s 750 mmHg 10%
    11:00 +49°C° 0 mm 7 m/s 750 mmHg 8%
    12:00 +52°C° 0 mm 7 m/s 750 mmHg 6%
    13:00 +52°C° 0 mm 7 m/s 749 mmHg 6%
    14:00 +53°C° 0 mm 7 m/s 749 mmHg 5%
    15:00 +55°C° 0 mm 7 m/s 748 mmHg 4%
    16:00 +53°C° 0 mm 7 m/s 748 mmHg 5%
    17:00 +51°C° 0 mm 7 m/s 748 mmHg 5%
    18:00 +50°C° 0 mm 7 m/s 748 mmHg 6%
    19:00 +47°C° 0 mm 6 m/s 749 mmHg 7%
    20:00 +45°C° 0 mm 6 m/s 749 mmHg 8%
    21:00 +42°C° 0 mm 6 m/s 750 mmHg 9%
    22:00 +41°C° 0 mm 6 m/s 750 mmHg 11%
    23:00 +39°C° 0 mm 5 m/s 750 mmHg 13%

    Poimâine, 24 August, Sâmbătă

    Timp Temperatura Precipitaţii Vânt Presiune Umiditate
    00:00 +37°C° 0 mm 5 m/s 750 mmHg 15%
    01:00 +36°C° 0 mm 5 m/s 750 mmHg 15%
    02:00 +36°C° 0 mm 5 m/s 750 mmHg 16%
    03:00 +35°C° 0 mm 5 m/s 750 mmHg 17%
    04:00 +34°C° 0 mm 4 m/s 750 mmHg 17%
    05:00 +34°C° 0 mm 3 m/s 751 mmHg 17%
    06:00 +32°C° 0 mm 2 m/s 751 mmHg 18%
    07:00 +36°C° 0 mm 3 m/s 751 mmHg 15%
    08:00 +41°C° 0 mm 4 m/s 751 mmHg 12%
    09:00 +45°C° 0 mm 5 m/s 751 mmHg 10%
    10:00 +47°C° 0 mm 4 m/s 751 mmHg 9%
    11:00 +49°C° 0 mm 4 m/s 751 mmHg 8%
    12:00 +51°C° 0 mm 4 m/s 751 mmHg 7%
    13:00 +52°C° 0 mm 3 m/s 750 mmHg 6%
    14:00 +52°C° 0 mm 3 m/s 750 mmHg 5%
    15:00 +53°C° 0 mm 3 m/s 749 mmHg 5%
    16:00 +52°C° 0 mm 3 m/s 749 mmHg 5%
    17:00 +50°C° 0 mm 3 m/s 749 mmHg 6%
    18:00 +47°C° 0 mm 2 m/s 749 mmHg 6%
    19:00 +45°C° 0 mm 2 m/s 749 mmHg 7%
    20:00 +43°C° 0 mm 3 m/s 749 mmHg 8%
    21:00 +40°C° 0 mm 3 m/s 750 mmHg 9%
    22:00 +40°C° 0 mm 3 m/s 750 mmHg 9%
    23:00 +41°C° 0 mm 4 m/s 750 mmHg 9%

    25 August, Duminică

    Timp Temperatura Precipitaţii Vânt Presiune Umiditate
    00:00 +40°C° 0 mm 4 m/s 750 mmHg 8%
    01:00 +38°C° 0 mm 4 m/s 750 mmHg 10%
    02:00 +37°C° 0 mm 4 m/s 749 mmHg 12%
    03:00 +36°C° 0 mm 4 m/s 749 mmHg 14%
    04:00 +36°C° 0 mm 3 m/s 750 mmHg 14%
    05:00 +36°C° 0 mm 3 m/s 750 mmHg 15%
    06:00 +35°C° 0 mm 3 m/s 750 mmHg 15%
    07:00 +39°C° 0 mm 3 m/s 750 mmHg 13%
    08:00 +43°C° 0 mm 3 m/s 750 mmHg 10%
    09:00 +47°C° 0 mm 3 m/s 751 mmHg 8%
    10:00 +50°C° 0 mm 4 m/s 750 mmHg 7%
    11:00 +53°C° 0 mm 5 m/s 750 mmHg 6%
    12:00 +56°C° 0 mm 7 m/s 750 mmHg 5%
    13:00 +56°C° 0 mm 7 m/s 749 mmHg 5%
    14:00 +57°C° 0 mm 7 m/s 749 mmHg 5%
    15:00 +57°C° 0 mm 7 m/s 748 mmHg 5%
    16:00 +54°C° 0 mm 6 m/s 748 mmHg 5%
    17:00 +53°C° 0 mm 5 m/s 748 mmHg 5%
    18:00 +50°C° 0 mm 5 m/s 748 mmHg 6%
    19:00 +48°C° 0 mm 4 m/s 748 mmHg 7%
    20:00 +45°C° 0 mm 4 m/s 748 mmHg 8%
    21:00 +43°C° 0 mm 4 m/s 749 mmHg 9%
    22:00 +43°C° 0 mm 4 m/s 749 mmHg 9%
    23:00 +42°C° 0 mm 5 m/s 749 mmHg 10%

    26 August, Luni

    Timp Temperatura Precipitaţii Vânt Presiune Umiditate
    00:00 +42°C° 0 mm 5 m/s 748 mmHg 11%
    01:00 +41°C° 0 mm 4 m/s 748 mmHg 11%
    02:00 +40°C° 0 mm 4 m/s 748 mmHg 12%
    03:00 +38°C° 0 mm 4 m/s 748 mmHg 13%
    04:00 +38°C° 0 mm 4 m/s 748 mmHg 13%
    05:00 +37°C° 0 mm 4 m/s 748 mmHg 14%
    06:00 +37°C° 0 mm 4 m/s 749 mmHg 14%
    07:00 +41°C° 0 mm 4 m/s 749 mmHg 12%
    08:00 +45°C° 0 mm 5 m/s 749 mmHg 10%
    09:00 +48°C° 0 mm 5 m/s 750 mmHg 9%
    10:00 +50°C° 0 mm 5 m/s 749 mmHg 7%
    11:00 +53°C° 0 mm 6 m/s 749 mmHg 6%
    12:00 +55°C° 0 mm 6 m/s 749 mmHg 5%
    13:00 +55°C° 0 mm 6 m/s 748 mmHg 5%
    14:00 +56°C° 0 mm 5 m/s 748 mmHg 5%
    15:00 +56°C° 0 mm 5 m/s 747 mmHg 4%
    16:00 +55°C° 0 mm 5 m/s 747 mmHg 5%
    17:00 +52°C° 0 mm 4 m/s 747 mmHg 5%
    18:00 +50°C° 0 mm 3 m/s 747 mmHg 6%
    19:00 +47°C° 0 mm 3 m/s 747 mmHg 7%
    20:00 +45°C° 0 mm 3 m/s 748 mmHg 8%
    21:00 +43°C° 0 mm 3 m/s 748 mmHg 9%
    22:00 +43°C° 0 mm 4 m/s 748 mmHg 9%
    23:00 +42°C° 0 mm 5 m/s 748 mmHg 9%

    27 August, Marţi

    Timp Temperatura Precipitaţii Vânt Presiune Umiditate
    00:00 +42°C° 0 mm 6 m/s 748 mmHg 9%
    01:00 +41°C° 0 mm 6 m/s 748 mmHg 10%
    02:00 +41°C° 0 mm 6 m/s 748 mmHg 11%
    03:00 +41°C° 0 mm 7 m/s 748 mmHg 12%
    04:00 +40°C° 0 mm 6 m/s 748 mmHg 13%
    05:00 +40°C° 0 mm 6 m/s 748 mmHg 13%
    06:00 +40°C° 0 mm 6 m/s 749 mmHg 14%
    07:00 +44°C° 0 mm 6 m/s 749 mmHg 12%
    08:00 +47°C° 0 mm 6 m/s 749 mmHg 10%
    09:00 +52°C° 0 mm 6 m/s 749 mmHg 8%
    10:00 +54°C° 0 mm 6 m/s 749 mmHg 7%
    11:00 +55°C° 0 mm 6 m/s 749 mmHg 6%
    12:00 +58°C° 0 mm 6 m/s 749 mmHg 5%
    13:00 +58°C° 0 mm 6 m/s 748 mmHg 5%
    14:00 +58°C° 0 mm 6 m/s 748 mmHg 4%
    15:00 +58°C° 0 mm 6 m/s 747 mmHg 4%
    16:00 +55°C° 0 mm 6 m/s 747 mmHg 5%
    17:00 +54°C° 0 mm 6 m/s 747 mmHg 5%
    18:00 +52°C° 0 mm 6 m/s 747 mmHg 5%
    19:00 +49°C° 0 mm 6 m/s 748 mmHg 6%
    20:00 +47°C° 0 mm 6 m/s 748 mmHg 7%
    21:00 +45°C° 0 mm 5 m/s 749 mmHg 7%
    22:00 +44°C° 0 mm 6 m/s 749 mmHg 8%
    23:00 +42°C° 0 mm 6 m/s 749 mmHg 10%
    Arată mai mult